Location: S�tio Afonso Gruber
(26.1760°S, 49.5250°W)
Time: 00:34:21
(UTC+00:00)

Cosmos 1689 Rocket - Pass Details

Date: 07 June 2020
Orbit: 367 x 382 km, 97.5° (Epoch: 13 July)

Event Time Altitude Azimuth Distance (km) Brightness Sun altitude
Exits shadow 08:40:31 47° 196° (SSW) 504 2.4 -17.6°
Maximum altitude 08:41:09 66° 257° (WSW) 410 1.9 -17.5°
Drops below altitude 10° 08:44:03 10° 341° (NNW) 1,369 4.8 -16.8°
Sets 08:45:59 0° 343° (NNW) 2,212 5.9 -16.4°
